Weather History for Salina, KS

Change the Weather History Date:

Wednesday, January 18, 2012

  Actual Average Record
Temperature  
Mean Temperature 25 °F 31 °F  
Max Temperature 40 °F 42 °F 72 °F (1951)
Min Temperature 9 °F 20 °F -11 °F (1984)
Degree Days  
Heating Degree Days 40 34  
Month to date heating degree days 539 612  
Since 1 July heating degree days 2424 2576  
Cooling Degree Days 0 0  
Month to date cooling degree days 0 0  
Year to date cooling degree days 0 0  
Moisture  
Dew Point 14 °F    
Average Humidity 60    
Maximum Humidity 83    
Minimum Humidity 37    
Precipitation  
Precipitation T in 0.02 in 0.79 in (1979)
Month to date precipitation T 0.31  
Year to date precipitation T 0.31  
Sea Level Pressure  
Sea Level Pressure 30.09 in    
Wind  
Wind Speed 13 mph (South)    
Max Wind Speed 31 mph    
Max Gust Speed 37 mph    
Visibility 10 miles    
Events      
T = Trace of Precipitation, MM = Missing Value Source: NWS Daily Summary

Daily Weather History Graph

Daily Weather History Graph

Search for Another Location

Airport:

Trip Planner

Search our weather history database for the weather conditions in past years. The results will help you decide how hot, cold, wet, or windy it might be!

Date:

Astronomy

Jan. 18, 2012 Rise Set
Actual Time 7:46 AM CST 5:35 PM CST
Civil Twilight 7:17 AM CST 6:04 PM CST
Nautical Twilight 6:44 AM CST 6:37 PM CST
Astronomical Twilight 6:12 AM CST 7:09 PM CST
Moon 3:17 AM CST (1/18) 1:16 PM CST (1/18)
Length of Visible Light 10h 47m
Length of Day
9h 49m
Waning Crescent, 24% of the Moon is Illuminated
Jan 18
Waning Crescent
Jan 23
New
Jan 30
First Quarter
Feb 7
Full
Feb 14
Last Quarter

Hourly Weather History & Observations

Time (CST) Temp. Windchill Dew Point Humidity Pressure Visibility Wind Dir Wind Speed Gust Speed Precip Events Conditions
12:53 AM 12.0 °F 1.5 °F 7.0 °F 80% 30.37 in 10.0 mi SSE 6.9 mph - N/A   Clear
1:53 AM 10.9 °F 2.9 °F 6.1 °F 81% 30.35 in 10.0 mi SSE 4.6 mph - N/A   Clear
2:53 AM 12.0 °F 4.1 °F 7.0 °F 80% 30.32 in 10.0 mi South 4.6 mph - N/A   Clear
3:53 AM 12.9 °F -0.2 °F 7.0 °F 77% 30.26 in 10.0 mi SSE 10.4 mph - N/A   Clear
4:53 AM 16.0 °F 1.7 °F 9.0 °F 74% 30.26 in 10.0 mi South 13.8 mph - N/A   Clear
5:53 AM 16.0 °F 2.3 °F 10.0 °F 77% 30.23 in 10.0 mi South 12.7 mph - N/A   Clear
6:53 AM 17.1 °F 5.8 °F 10.0 °F 74% 30.22 in 10.0 mi South 9.2 mph - N/A   Clear
7:53 AM 18.0 °F 4.8 °F 10.9 °F 74% 30.22 in 10.0 mi South 12.7 mph - N/A   Clear
8:53 AM 19.9 °F 8.6 °F 12.0 °F 71% 30.20 in 10.0 mi South 10.4 mph 19.6 mph N/A   Clear
9:53 AM 25.0 °F 9.5 °F 12.9 °F 60% 30.19 in 10.0 mi South 24.2 mph 28.8 mph N/A   Clear
10:53 AM 32.0 °F 18.4 °F 14.0 °F 48% 30.14 in 10.0 mi SSW 26.5 mph 33.4 mph N/A   Partly Cloudy
11:53 AM 36.0 °F 24.2 °F 14.0 °F 41% 30.09 in 10.0 mi SSW 24.2 mph 32.2 mph 0.00 in   Clear
12:53 PM 37.0 °F 27.4 °F 15.1 °F 41% 30.05 in 10.0 mi SW 17.3 mph - N/A   Clear
1:53 PM 37.0 °F 26.7 °F 15.1 °F 41% 30.02 in 10.0 mi SSW 19.6 mph - N/A   Clear
2:53 PM 39.9 °F 31.8 °F 16.0 °F 38% 29.99 in 10.0 mi SSW 15.0 mph - N/A   Clear
3:53 PM 39.0 °F 30.6 °F 17.1 °F 41% 29.97 in 10.0 mi SSW 15.0 mph - N/A   Clear
4:53 PM 37.0 °F 30.4 °F 18.0 °F 46% 29.95 in 10.0 mi South 9.2 mph - N/A   Clear
5:53 PM 34.0 °F 28.0 °F 18.0 °F 52% 29.94 in 10.0 mi South 6.9 mph - N/A   Clear
6:53 PM 34.0 °F 24.6 °F 18.0 °F 52% 29.93 in 10.0 mi South 13.8 mph - N/A   Clear
7:53 PM 32.0 °F 24.2 °F 19.0 °F 59% 29.91 in 10.0 mi South 9.2 mph - N/A   Clear
8:53 PM 30.0 °F 21.7 °F 18.0 °F 61% 29.91 in 10.0 mi South 9.2 mph - N/A   Clear
9:53 PM 30.9 °F 22.2 °F 19.0 °F 61% 29.88 in 10.0 mi South 10.4 mph - N/A   Clear
10:53 PM 34.0 °F 26.0 °F 19.9 °F 56% 29.86 in 10.0 mi South 10.4 mph - N/A   Clear
11:53 PM 34.0 °F 27.2 °F 19.9 °F 56% 29.85 in 10.0 mi SSW 8.1 mph - N/A   Clear